Location: Sungai Bunut
(2.6333°N, 113.7333°E)
Time: 05:44:11
(UTC+00:00)

Envisat - Pass Details

Date: 23 January 2022
Orbit: 764 x 765 km, 98.2° (Epoch: 17 May)

Event Time Altitude Azimuth Distance (km) Brightness Sun altitude
Rises 19:45:52 0° 50° (NE) 3,218 6.5 -41.0°
Reaches altitude 10° 19:49:46 10° 81° (E) 2,296 6.0 -40.1°
Maximum altitude 19:51:36 12° 102° (ESE) 2,167 6.0 -39.6°
Drops below altitude 10° 19:53:25 10° 123° (ESE) 2,299 6.1 -39.2°
Sets 19:57:19 0° 154° (SSE) 3,228 6.8 -38.3°
